sat.trackr.live / text

‹ back to catalog

STARLINK-35068

NORAD 65438 · 2025-194E

PAYLOAD ACTIVE UNKNOWN

§ Identity

Operator
Country
US
Launch date
2025-09-03
Launch site
AFWTR
Launch vehicle
Mass (kg)
RCS (m²)

Purposes: comms

External: N2YO · Heavens-Above · Gunter

§ Orbital elements

Epoch: 2026-05-25T02:54:24.133824Z

Period
95.64 min
Inclination
97.4505°
Eccentricity
0.0002746
Mean motion
15.05672930 rev/d
Perigee alt
547.5 km
Apogee alt
551.3 km
Semi-major
6,927.6 km
B*
2.6797e-4
RAAN
359.2758°
Arg perigee
83.0507°
Mean anomaly
277.1033°
Rev number
4,114

§ Raw data

STARLINK-350681 65438U 25194E   26145.12111266  .00003812  00000+0  26797-3 0  99922 65438  97.4505 359.2758 0002746  83.0507 277.1033 15.05672930 41140

JSON: /api/v1/satellites/65438 · /tle

For live sub-satellite position, see the globe view (requires WebGL).

§ Visibility from observer

Set your observer location to see the next 7 days of passes ≥ 10°. The values pass through the URL so the page stays shareable.

No JS? Fill the form by hand. The geolocation button needs JavaScript.